Time,TemperatureF,DewpointF,PressureIn,WindDirection,WindDirectionDegrees,WindSpeedMPH,WindSpeedGustMPH,Humidity,HourlyPrecipIn,Conditions,Clouds,dailyrainin,SoftwareType,DateUTC
2013-06-27 00:05:00,70.4,68.3,29.67,NW,308,0.0,0.0,93,0.00,,,0.30,Wunderground v.1.13,2013-06-27 05:05:00,
2013-06-27 00:15:00,70.3,68.2,29.67,WNW,282,0.0,0.0,93,0.00,,,0.30,Wunderground v.1.13,2013-06-27 05:15:00,
2013-06-27 00:20:00,70.1,68.0,29.67,WNW,282,0.0,0.0,93,0.00,,,0.30,Wunderground v.1.13,2013-06-27 05:20:00,
2013-06-27 00:25:00,70.1,68.0,29.67,WNW,282,0.0,0.0,93,0.00,,,0.30,Wunderground v.1.13,2013-06-27 05:25:00,
2013-06-27 00:30:00,69.9,67.8,29.67,WNW,282,0.0,0.0,93,0.00,,,0.30,Wunderground v.1.13,2013-06-27 05:30:00,
2013-06-27 00:40:00,69.8,67.7,29.67,WNW,282,0.0,1.0,93,0.00,,,0.30,Wunderground v.1.13,2013-06-27 05:40:00,
2013-06-27 00:45:00,69.8,68.0,29.67,WNW,282,0.0,1.0,94,0.00,,,0.30,Wunderground v.1.13,2013-06-27 05:45:00,
2013-06-27 00:55:00,69.6,67.8,29.67,WNW,282,0.0,1.0,94,0.00,,,0.30,Wunderground v.1.13,2013-06-27 05:55:00,
2013-06-27 01:05:00,69.4,67.6,29.67,WNW,282,0.0,1.0,94,0.00,,,0.30,Wunderground v.1.13,2013-06-27 06:05:00,
2013-06-27 01:15:00,69.3,67.5,29.67,WNW,282,0.0,1.0,94,0.00,,,0.30,Wunderground v.1.13,2013-06-27 06:15:00,
2013-06-27 01:25:00,69.4,67.6,29.67,WNW,282,0.0,1.0,94,0.00,,,0.30,Wunderground v.1.13,2013-06-27 06:25:00,
2013-06-27 01:35:00,69.4,67.6,29.67,WNW,282,0.0,0.0,94,0.00,,,0.30,Wunderground v.1.13,2013-06-27 06:35:00,
2013-06-27 01:45:00,69.3,67.5,29.66,WNW,282,0.0,0.0,94,0.00,,,0.30,Wunderground v.1.13,2013-06-27 06:45:00,
2013-06-27 01:50:00,69.1,67.6,29.66,WNW,282,0.0,0.0,95,0.00,,,0.30,Wunderground v.1.13,2013-06-27 06:50:00,
2013-06-27 01:55:00,69.1,67.6,29.66,WNW,282,0.0,0.0,95,0.00,,,0.30,Wunderground v.1.13,2013-06-27 06:55:00,
2013-06-27 02:05:00,69.1,67.6,29.66,WNW,282,0.0,0.0,95,0.00,,,0.30,Wunderground v.1.13,2013-06-27 07:05:00,
2013-06-27 02:15:00,69.1,67.6,29.66,WNW,282,0.0,0.0,95,0.00,,,0.30,Wunderground v.1.13,2013-06-27 07:15:00,
2013-06-27 02:25:00,68.9,67.4,29.66,WNW,282,0.0,0.0,95,0.00,,,0.30,Wunderground v.1.13,2013-06-27 07:25:00,
2013-06-27 02:30:00,68.9,67.4,29.66,WNW,282,0.0,0.0,95,0.00,,,0.30,Wunderground v.1.13,2013-06-27 07:30:00,
2013-06-27 02:40:00,68.8,67.3,29.66,WNW,282,0.0,0.0,95,0.00,,,0.30,Wunderground v.1.13,2013-06-27 07:40:00,
2013-06-27 02:50:00,68.9,67.4,29.67,WNW,282,0.0,0.0,95,0.00,,,0.30,Wunderground v.1.13,2013-06-27 07:50:00,
2013-06-27 02:55:00,68.9,67.4,29.67,WNW,282,0.0,0.0,95,0.00,,,0.30,Wunderground v.1.13,2013-06-27 07:55:00,
2013-06-27 03:05:00,68.9,67.4,29.66,WNW,282,0.0,0.0,95,0.00,,,0.30,Wunderground v.1.13,2013-06-27 08:05:00,
2013-06-27 03:15:00,69.1,67.9,29.66,WNW,282,0.0,0.0,96,0.00,,,0.30,Wunderground v.1.13,2013-06-27 08:15:00,
2013-06-27 03:25:00,69.3,68.1,29.66,WNW,282,0.0,0.0,96,0.00,,,0.30,Wunderground v.1.13,2013-06-27 08:25:00,
2013-06-27 03:35:00,69.4,68.2,29.66,WNW,282,0.0,0.0,96,0.00,,,0.30,Wunderground v.1.13,2013-06-27 08:35:00,
2013-06-27 03:40:00,69.4,68.2,29.66,WNW,282,0.0,0.0,96,0.00,,,0.30,Wunderground v.1.13,2013-06-27 08:40:00,
2013-06-27 03:50:00,69.6,68.1,29.66,WNW,282,0.0,0.0,95,0.00,,,0.30,Wunderground v.1.13,2013-06-27 08:50:00,
2013-06-27 03:55:00,69.6,68.1,29.66,WNW,282,0.0,0.0,95,0.00,,,0.30,Wunderground v.1.13,2013-06-27 08:55:00,
2013-06-27 04:00:00,69.6,68.1,29.66,WNW,282,0.0,0.0,95,0.00,,,0.30,Wunderground v.1.13,2013-06-27 09:00:00,
2013-06-27 04:05:00,69.6,68.1,29.66,WNW,282,0.0,0.0,95,0.00,,,0.30,Wunderground v.1.13,2013-06-27 09:05:00,
2013-06-27 04:15:00,69.4,67.9,29.65,WNW,282,0.0,0.0,95,0.00,,,0.30,Wunderground v.1.13,2013-06-27 09:15:00,
2013-06-27 04:25:00,69.3,67.8,29.65,WNW,282,0.0,0.0,95,0.00,,,0.30,Wunderground v.1.13,2013-06-27 09:25:00,
2013-06-27 04:35:00,69.1,67.6,29.65,WNW,282,0.0,0.0,95,0.00,,,0.30,Wunderground v.1.13,2013-06-27 09:35:00,
2013-06-27 04:40:00,69.1,67.6,29.65,WNW,282,0.0,0.0,95,0.00,,,0.30,Wunderground v.1.13,2013-06-27 09:40:00,
2013-06-27 04:45:00,68.9,67.4,29.66,WNW,282,0.0,0.0,95,0.00,,,0.30,Wunderground v.1.13,2013-06-27 09:45:00,
2013-06-27 04:50:00,68.8,67.3,29.66,WNW,282,0.0,0.0,95,0.00,,,0.30,Wunderground v.1.13,2013-06-27 09:50:00,
2013-06-27 05:00:00,68.6,67.1,29.67,WNW,282,0.0,0.0,95,0.00,,,0.30,Wunderground v.1.13,2013-06-27 10:00:00,
2013-06-27 05:05:00,68.4,66.9,29.67,WNW,282,0.0,0.0,95,0.00,,,0.30,Wunderground v.1.13,2013-06-27 10:05:00,
2013-06-27 05:15:00,68.4,67.2,29.67,WNW,282,0.0,0.0,96,0.00,,,0.30,Wunderground v.1.13,2013-06-27 10:15:00,
2013-06-27 05:25:00,68.4,67.2,29.67,WNW,282,0.0,0.0,96,0.00,,,0.30,Wunderground v.1.13,2013-06-27 10:25:00,
2013-06-27 05:30:00,68.4,67.2,29.67,WNW,282,0.0,0.0,96,0.00,,,0.30,Wunderground v.1.13,2013-06-27 10:30:00,
2013-06-27 05:40:00,68.4,67.2,29.67,WNW,282,0.0,0.0,96,0.00,,,0.30,Wunderground v.1.13,2013-06-27 10:40:00,
2013-06-27 05:50:00,68.3,67.1,29.68,WNW,282,0.0,0.0,96,0.00,,,0.30,Wunderground v.1.13,2013-06-27 10:50:00,
2013-06-27 05:55:00,68.4,67.2,29.68,WNW,282,0.0,0.0,96,0.00,,,0.30,Wunderground v.1.13,2013-06-27 10:55:00,
2013-06-27 06:05:00,68.6,67.4,29.68,WNW,282,0.0,0.0,96,0.00,,,0.30,Wunderground v.1.13,2013-06-27 11:05:00,
2013-06-27 06:15:00,68.9,67.7,29.68,WNW,282,0.0,0.0,96,0.00,,,0.00,Wunderground v.1.13,2013-06-27 11:15:00,
2013-06-27 06:20:00,69.1,67.9,29.68,WNW,282,0.0,0.0,96,0.00,,,0.00,Wunderground v.1.13,2013-06-27 11:20:00,
2013-06-27 06:30:00,69.4,68.2,29.68,WNW,284,0.0,0.0,96,0.00,,,0.00,Wunderground v.1.13,2013-06-27 11:30:00,
2013-06-27 06:40:00,69.9,68.7,29.68,WNW,284,0.0,1.0,96,0.00,,,0.00,Wunderground v.1.13,2013-06-27 11:40:00,
2013-06-27 06:50:00,70.3,69.1,29.67,West,280,0.0,0.0,96,0.00,,,0.00,Wunderground v.1.13,2013-06-27 11:50:00,
2013-06-27 06:55:00,70.4,69.2,29.67,WNW,283,2.0,2.0,96,0.00,,,0.00,Wunderground v.1.13,2013-06-27 11:55:00,
2013-06-27 07:00:00,70.8,69.6,29.67,West,279,2.0,2.0,96,0.00,,,0.00,Wunderground v.1.13,2013-06-27 12:00:00,
2013-06-27 07:05:00,71.1,69.9,29.67,West,274,3.0,7.0,96,0.00,,,0.00,Wunderground v.1.13,2013-06-27 12:05:00,
2013-06-27 07:10:00,71.3,70.1,29.67,West,277,5.0,7.0,96,0.00,,,0.00,Wunderground v.1.13,2013-06-27 12:10:00,
2013-06-27 07:20:00,72.0,70.5,29.67,WNW,287,4.0,4.0,95,0.00,,,0.00,Wunderground v.1.13,2013-06-27 12:20:00,
2013-06-27 07:30:00,72.3,70.2,29.67,WNW,295,3.0,5.0,93,0.00,,,0.00,Wunderground v.1.13,2013-06-27 12:30:00,
2013-06-27 07:35:00,72.5,70.4,29.67,WNW,282,4.0,4.0,93,0.00,,,0.00,Wunderground v.1.13,2013-06-27 12:35:00,
2013-06-27 07:45:00,73.0,70.2,29.67,WNW,284,3.0,10.0,91,0.00,,,0.00,Wunderground v.1.13,2013-06-27 12:45:00,
2013-06-27 07:50:00,73.2,70.4,29.67,NW,309,3.0,10.0,91,0.00,,,0.00,Wunderground v.1.13,2013-06-27 12:50:00,
2013-06-27 08:00:00,74.2,70.7,29.67,WNW,286,3.0,3.0,89,0.00,,,0.00,Wunderground v.1.13,2013-06-27 13:00:00,
2013-06-27 08:05:00,74.6,70.5,29.67,West,269,2.0,2.0,87,0.00,,,0.00,Wunderground v.1.13,2013-06-27 13:05:00,
2013-06-27 08:15:00,75.1,69.9,29.66,NW,322,5.0,5.0,84,0.00,,,0.00,Wunderground v.1.13,2013-06-27 13:15:00,
2013-06-27 08:25:00,75.8,70.3,29.66,NW,315,6.0,10.0,83,0.00,,,0.00,Wunderground v.1.13,2013-06-27 13:25:00,
2013-06-27 08:30:00,76.1,70.6,29.67,West,266,6.0,6.0,83,0.00,,,0.00,Wunderground v.1.13,2013-06-27 13:30:00,
2013-06-27 08:35:00,76.5,70.6,29.67,West,270,5.0,5.0,82,0.00,,,0.00,Wunderground v.1.13,2013-06-27 13:35:00,
2013-06-27 08:45:00,77.4,70.7,29.67,NW,307,4.0,10.0,80,0.00,,,0.00,Wunderground v.1.13,2013-06-27 13:45:00,
2013-06-27 08:50:00,77.4,70.4,29.67,NW,326,5.0,10.0,79,0.00,,,0.00,Wunderground v.1.13,2013-06-27 13:50:00,
2013-06-27 09:00:00,77.9,70.9,29.67,NW,304,6.0,6.0,79,0.00,,,0.00,Wunderground v.1.13,2013-06-27 14:00:00,
2013-06-27 09:05:00,78.3,70.5,29.67,NW,305,4.0,12.0,77,0.00,,,0.00,Wunderground v.1.13,2013-06-27 14:05:00,
2013-06-27 09:10:00,78.3,70.5,29.67,West,281,5.0,12.0,77,0.00,,,0.00,Wunderground v.1.13,2013-06-27 14:10:00,
2013-06-27 09:20:00,78.5,71.1,29.67,WNW,286,7.0,7.0,78,0.00,,,0.00,Wunderground v.1.13,2013-06-27 14:20:00,
2013-06-27 09:25:00,78.8,71.0,29.67,NW,305,6.0,12.0,77,0.00,,,0.00,Wunderground v.1.13,2013-06-27 14:25:00,
2013-06-27 09:35:00,79.0,70.0,29.67,NW,304,6.0,14.0,74,0.00,,,0.00,Wunderground v.1.13,2013-06-27 14:35:00,
2013-06-27 09:45:00,79.4,70.4,29.66,West,271,6.0,14.0,74,0.00,,,0.00,Wunderground v.1.13,2013-06-27 14:45:00,
2013-06-27 09:55:00,79.9,70.5,29.66,NW,309,6.0,14.0,73,0.00,,,0.00,Wunderground v.1.13,2013-06-27 14:55:00,
2013-06-27 10:00:00,80.3,70.0,29.66,WNW,289,6.0,6.0,71,0.00,,,0.00,Wunderground v.1.13,2013-06-27 15:00:00,
2013-06-27 10:05:00,80.5,71.0,29.66,WNW,294,5.0,5.0,73,0.00,,,0.00,Wunderground v.1.13,2013-06-27 15:05:00,
2013-06-27 10:15:00,80.7,69.2,29.66,WNW,283,6.0,13.0,68,0.00,,,0.00,Wunderground v.1.13,2013-06-27 15:15:00,
2013-06-27 10:20:00,80.9,69.3,29.66,West,269,6.0,13.0,68,0.00,,,0.00,Wunderground v.1.13,2013-06-27 15:20:00,
2013-06-27 10:30:00,81.2,69.6,29.66,West,279,6.0,6.0,68,0.00,,,0.00,Wunderground v.1.13,2013-06-27 15:30:00,
2013-06-27 10:40:00,81.4,68.5,29.66,West,269,6.0,6.0,65,0.00,,,0.00,Wunderground v.1.13,2013-06-27 15:40:00,
2013-06-27 10:45:00,81.6,68.2,29.66,WNW,292,6.0,15.0,64,0.00,,,0.00,Wunderground v.1.13,2013-06-27 15:45:00,
2013-06-27 10:55:00,82.6,70.1,29.66,West,272,5.0,5.0,66,0.00,,,0.00,Wunderground v.1.13,2013-06-27 15:55:00,
2013-06-27 11:05:00,82.8,68.4,29.66,West,261,5.0,13.0,62,0.00,,,0.00,Wunderground v.1.13,2013-06-27 16:05:00,
2013-06-27 11:15:00,82.6,68.3,29.66,NW,325,7.0,7.0,62,0.00,,,0.00,Wunderground v.1.13,2013-06-27 16:15:00,
2013-06-27 11:25:00,83.4,68.1,29.66,West,267,5.0,13.0,60,0.00,,,0.00,Wunderground v.1.13,2013-06-27 16:25:00,
2013-06-27 11:35:00,83.4,67.1,29.66,West,272,7.0,12.0,58,0.00,,,0.00,Wunderground v.1.13,2013-06-27 16:35:00,
2013-06-27 11:40:00,83.4,68.1,29.66,NW,325,7.0,12.0,60,0.00,,,0.00,Wunderground v.1.13,2013-06-27 16:40:00,
2013-06-27 11:50:00,83.8,67.4,29.66,WNW,290,6.0,12.0,58,0.00,,,0.00,Wunderground v.1.13,2013-06-27 16:50:00,
2013-06-27 12:00:00,84.1,69.2,29.66,West,275,4.0,12.0,61,0.00,,,0.00,Wunderground v.1.13,2013-06-27 17:00:00,
2013-06-27 12:05:00,84.3,68.4,29.66,WNW,287,5.0,16.0,59,0.00,,,0.00,Wunderground v.1.13,2013-06-27 17:05:00,
2013-06-27 12:15:00,84.1,67.2,29.66,WNW,297,5.0,16.0,57,0.00,,,0.00,Wunderground v.1.13,2013-06-27 17:15:00,
2013-06-27 12:20:00,84.3,66.9,29.66,West,279,6.0,16.0,56,0.00,,,0.00,Wunderground v.1.13,2013-06-27 17:20:00,
2013-06-27 12:30:00,84.7,64.6,29.66,WNW,284,7.0,16.0,51,0.00,,,0.00,Wunderground v.1.13,2013-06-27 17:30:00,
2013-06-27 12:40:00,84.9,66.4,29.66,West,274,6.0,13.0,54,0.00,,,0.00,Wunderground v.1.13,2013-06-27 17:40:00,
2013-06-27 12:45:00,84.9,66.9,29.66,WNW,297,5.0,13.0,55,0.00,,,0.00,Wunderground v.1.13,2013-06-27 17:45:00,
2013-06-27 12:55:00,85.1,66.0,29.66,NW,321,6.0,13.0,53,0.00,,,0.00,Wunderground v.1.13,2013-06-27 17:55:00,
2013-06-27 13:00:00,85.1,66.0,29.66,WNW,287,7.0,7.0,53,0.00,,,0.00,Wunderground v.1.13,2013-06-27 18:00:00,
2013-06-27 13:05:00,85.5,67.0,29.66,West,280,3.0,14.0,54,0.00,,,0.00,Wunderground v.1.13,2013-06-27 18:05:00,
2013-06-27 13:15:00,85.9,66.8,29.65,NW,306,3.0,3.0,53,0.00,,,0.00,Wunderground v.1.13,2013-06-27 18:15:00,
2013-06-27 13:20:00,85.1,66.0,29.65,WNW,291,5.0,14.0,53,0.00,,,0.00,Wunderground v.1.13,2013-06-27 18:20:00,
2013-06-27 13:30:00,85.7,67.1,29.65,WNW,284,3.0,14.0,54,0.00,,,0.00,Wunderground v.1.13,2013-06-27 18:30:00,
2013-06-27 13:35:00,86.1,65.9,29.65,West,277,2.0,14.0,51,0.00,,,0.00,Wunderground v.1.13,2013-06-27 18:35:00,
2013-06-27 13:45:00,85.3,65.1,29.65,WNW,288,5.0,5.0,51,0.00,,,0.00,Wunderground v.1.13,2013-06-27 18:45:00,
2013-06-27 13:50:00,84.9,65.9,29.65,WNW,288,3.0,3.0,53,0.00,,,0.00,Wunderground v.1.13,2013-06-27 18:50:00,
2013-06-27 14:00:00,84.1,66.2,29.65,NW,315,1.0,14.0,55,0.00,,,0.00,Wunderground v.1.13,2013-06-27 19:00:00,
2013-06-27 14:05:00,83.8,66.4,29.65,NW,314,2.0,2.0,56,0.00,,,0.00,Wunderground v.1.13,2013-06-27 19:05:00,
2013-06-27 14:15:00,83.2,65.9,29.65,West,271,1.0,14.0,56,0.00,,,0.00,Wunderground v.1.13,2013-06-27 19:15:00,
2013-06-27 14:20:00,82.2,62.3,29.65,West,273,3.0,3.0,51,0.00,,,0.00,Wunderground v.1.13,2013-06-27 19:20:00,
2013-06-27 14:30:00,82.2,64.4,29.63,West,273,1.0,1.0,55,0.00,,,0.00,Wunderground v.1.13,2013-06-27 19:30:00,
2013-06-27 14:40:00,81.6,64.4,29.63,SSW,211,1.0,1.0,56,0.00,,,0.00,Wunderground v.1.13,2013-06-27 19:40:00,
2013-06-27 14:45:00,81.1,63.4,29.63,WNW,296,1.0,10.0,55,0.00,,,0.00,Wunderground v.1.13,2013-06-27 19:45:00,
2013-06-27 14:55:00,79.8,63.7,29.63,West,271,2.0,2.0,58,0.00,,,0.00,Wunderground v.1.13,2013-06-27 19:55:00,
2013-06-27 15:05:00,79.2,64.6,29.63,NNW,344,0.0,9.0,61,0.00,,,0.00,Wunderground v.1.13,2013-06-27 20:05:00,
2013-06-27 15:15:00,78.1,64.5,29.63,NNW,345,0.0,9.0,63,0.00,,,0.00,Wunderground v.1.13,2013-06-27 20:15:00,
2013-06-27 15:25:00,77.7,67.1,29.63,West,281,1.0,9.0,70,0.00,,,0.01,Wunderground v.1.13,2013-06-27 20:25:00,
2013-06-27 15:35:00,74.9,66.1,29.65,NNW,327,6.0,6.0,74,0.08,,,0.02,Wunderground v.1.13,2013-06-27 20:35:00,
2013-06-27 15:45:00,73.0,65.4,29.64,WNW,299,2.0,2.0,77,0.04,,,0.02,Wunderground v.1.13,2013-06-27 20:45:00,
2013-06-27 15:50:00,72.7,66.2,29.64,WNW,299,1.0,1.0,80,0.18,,,0.04,Wunderground v.1.13,2013-06-27 20:50:00,
2013-06-27 16:00:00,72.5,67.4,29.64,WNW,299,0.0,10.0,84,0.06,,,0.04,Wunderground v.1.13,2013-06-27 21:00:00,
2013-06-27 16:05:00,72.8,68.0,29.64,WNW,299,0.0,16.0,85,0.04,,,0.04,Wunderground v.1.13,2013-06-27 21:05:00,
2013-06-27 16:20:00,74.9,68.3,29.63,WNW,299,0.0,16.0,80,0.00,,,0.04,Wunderground v.1.13,2013-06-27 21:20:00,
2013-06-27 16:30:00,76.3,68.2,29.62,WNW,299,0.0,16.0,76,0.00,,,0.04,Wunderground v.1.13,2013-06-27 21:30:00,
2013-06-27 16:40:00,77.0,66.9,29.62,WNW,300,0.0,6.0,71,0.00,,,0.04,Wunderground v.1.13,2013-06-27 21:40:00,
2013-06-27 16:50:00,78.1,67.5,29.61,WNW,300,0.0,6.0,70,0.00,,,0.04,Wunderground v.1.13,2013-06-27 21:50:00,
2013-06-27 17:00:00,79.2,66.9,29.60,WNW,300,0.0,6.0,66,0.00,,,0.04,Wunderground v.1.13,2013-06-27 22:00:00,
2013-06-27 17:05:00,79.8,67.0,29.60,WNW,299,0.0,4.0,65,0.00,,,0.04,Wunderground v.1.13,2013-06-27 22:05:00,
2013-06-27 17:15:00,79.9,67.1,29.59,WNW,299,0.0,4.0,65,0.00,,,0.04,Wunderground v.1.13,2013-06-27 22:15:00,
2013-06-27 17:25:00,80.7,66.5,29.59,West,268,0.0,4.0,62,0.00,,,0.04,Wunderground v.1.13,2013-06-27 22:25:00,
2013-06-27 17:35:00,81.2,68.8,29.58,West,259,0.0,4.0,66,0.00,,,0.04,Wunderground v.1.13,2013-06-27 22:35:00,
2013-06-27 17:45:00,81.1,69.1,29.58,West,259,0.0,4.0,67,0.00,,,0.04,Wunderground v.1.13,2013-06-27 22:45:00,
2013-06-27 17:55:00,81.6,67.3,29.58,West,259,0.0,4.0,62,0.00,,,0.04,Wunderground v.1.13,2013-06-27 22:55:00,
2013-06-27 18:00:00,82.0,68.6,29.58,West,259,0.0,4.0,64,0.00,,,0.04,Wunderground v.1.13,2013-06-27 23:00:00,
2013-06-27 18:05:00,81.8,69.3,29.58,West,259,0.0,4.0,66,0.00,,,0.04,Wunderground v.1.13,2013-06-27 23:05:00,
2013-06-27 18:15:00,81.4,69.8,29.58,WSW,258,0.0,4.0,68,0.00,,,0.04,Wunderground v.1.13,2013-06-27 23:15:00,
2013-06-27 18:25:00,81.4,69.4,29.58,WSW,238,0.0,4.0,67,0.00,,,0.04,Wunderground v.1.13,2013-06-27 23:25:00,
2013-06-27 18:35:00,81.4,70.2,29.58,WSW,238,0.0,3.0,69,0.00,,,0.04,Wunderground v.1.13,2013-06-27 23:35:00,
2013-06-27 19:00:00,80.7,71.2,29.59,WSW,240,0.0,3.0,73,0.00,,,0.04,Wunderground v.1.13,2013-06-28 00:00:00,
2013-06-27 19:05:00,81.4,66.7,29.59,WNW,286,3.0,7.0,61,0.00,,,0.04,Wunderground v.1.13,2013-06-28 00:05:00,
2013-06-27 19:15:00,82.4,64.1,29.59,WNW,284,6.0,6.0,54,0.00,,,0.04,Wunderground v.1.13,2013-06-28 00:15:00,
2013-06-27 19:25:00,82.4,64.1,29.59,West,266,6.0,7.0,54,0.00,,,0.04,Wunderground v.1.13,2013-06-28 00:25:00,
2013-06-27 19:35:00,81.8,64.1,29.59,WNW,289,5.0,5.0,55,0.00,,,0.04,Wunderground v.1.13,2013-06-28 00:35:00,
2013-06-27 19:45:00,81.4,63.7,29.59,West,277,6.0,6.0,55,0.00,,,0.04,Wunderground v.1.13,2013-06-28 00:45:00,
2013-06-27 19:50:00,81.2,64.0,29.59,WNW,302,5.0,5.0,56,0.00,,,0.04,Wunderground v.1.13,2013-06-28 00:50:00,
2013-06-27 20:00:00,80.5,63.9,29.60,West,266,4.0,13.0,57,0.00,,,0.04,Wunderground v.1.13,2013-06-28 01:00:00,
2013-06-27 20:05:00,79.9,63.3,29.60,West,266,3.0,3.0,57,0.00,,,0.04,Wunderground v.1.13,2013-06-28 01:05:00,
2013-06-27 20:20:00,78.8,62.8,29.60,WNW,294,3.0,11.0,58,0.00,,,0.04,Wunderground v.1.13,2013-06-28 01:20:00,
2013-06-27 20:25:00,78.6,62.6,29.60,West,274,4.0,4.0,58,0.00,,,0.04,Wunderground v.1.13,2013-06-28 01:25:00,
2013-06-27 20:35:00,78.1,62.6,29.60,West,275,3.0,3.0,59,0.00,,,0.04,Wunderground v.1.13,2013-06-28 01:35:00,
2013-06-27 20:45:00,77.4,62.4,29.60,West,275,1.0,1.0,60,0.00,,,0.04,Wunderground v.1.13,2013-06-28 01:45:00,
2013-06-27 21:00:00,76.7,62.7,29.60,West,275,0.0,10.0,62,0.00,,,0.04,Wunderground v.1.13,2013-06-28 02:00:00,
2013-06-27 21:05:00,76.3,62.8,29.60,West,275,0.0,10.0,63,0.00,,,0.04,Wunderground v.1.13,2013-06-28 02:05:00,
2013-06-27 21:15:00,75.8,62.8,29.60,West,275,0.0,10.0,64,0.00,,,0.04,Wunderground v.1.13,2013-06-28 02:15:00,
2013-06-27 21:30:00,75.3,62.7,29.60,West,275,0.0,10.0,65,0.00,,,0.04,Wunderground v.1.13,2013-06-28 02:30:00,
2013-06-27 21:40:00,74.9,63.2,29.60,West,275,0.0,6.0,67,0.00,,,0.04,Wunderground v.1.13,2013-06-28 02:40:00,
2013-06-27 21:50:00,74.2,63.4,29.60,West,275,0.0,6.0,69,0.00,,,0.04,Wunderground v.1.13,2013-06-28 02:50:00,
2013-06-27 22:00:00,73.5,63.1,29.60,West,275,0.0,6.0,70,0.00,,,0.04,Wunderground v.1.13,2013-06-28 03:00:00,
2013-06-27 22:05:00,73.2,63.2,29.60,West,275,0.0,1.0,71,0.00,,,0.04,Wunderground v.1.13,2013-06-28 03:05:00,
2013-06-27 22:15:00,73.0,63.0,29.61,West,275,0.0,1.0,71,0.00,,,0.04,Wunderground v.1.13,2013-06-28 03:15:00,
2013-06-27 22:25:00,73.2,62.8,29.61,West,275,0.0,1.0,70,0.00,,,0.04,Wunderground v.1.13,2013-06-28 03:25:00,
2013-06-27 22:30:00,73.2,62.4,29.60,West,275,0.0,1.0,69,0.00,,,0.04,Wunderground v.1.13,2013-06-28 03:30:00,
2013-06-27 22:35:00,73.3,62.1,29.60,West,275,0.0,4.0,68,0.00,,,0.04,Wunderground v.1.13,2013-06-28 03:35:00,
2013-06-27 22:45:00,73.7,61.2,29.60,West,278,1.0,1.0,65,0.00,,,0.04,Wunderground v.1.13,2013-06-28 03:45:00,
2013-06-27 22:50:00,73.9,61.4,29.60,West,278,1.0,1.0,65,0.00,,,0.04,Wunderground v.1.13,2013-06-28 03:50:00,
2013-06-27 22:55:00,74.0,61.0,29.60,WNW,293,1.0,4.0,64,0.00,,,0.04,Wunderground v.1.13,2013-06-28 03:55:00,
2013-06-27 23:00:00,74.0,60.6,29.60,NW,320,1.0,4.0,63,0.00,,,0.04,Wunderground v.1.13,2013-06-28 04:00:00,
2013-06-27 23:05:00,74.0,60.6,29.60,NW,320,1.0,1.0,63,0.00,,,0.04,Wunderground v.1.13,2013-06-28 04:05:00,
2013-06-27 23:10:00,74.0,61.0,29.60,NW,320,0.0,8.0,64,0.00,,,0.04,Wunderground v.1.13,2013-06-28 04:10:00,
2013-06-27 23:20:00,73.3,61.3,29.60,NW,320,0.0,8.0,66,0.00,,,0.04,Wunderground v.1.13,2013-06-28 04:20:00,
2013-06-27 23:25:00,73.2,61.6,29.60,NW,320,0.0,8.0,67,0.00,,,0.04,Wunderground v.1.13,2013-06-28 04:25:00,
2013-06-27 23:30:00,72.8,62.0,29.61,NW,320,0.0,8.0,69,0.00,,,0.04,Wunderground v.1.13,2013-06-28 04:30:00,
2013-06-27 23:35:00,72.3,62.8,29.61,NW,320,0.0,7.0,72,0.00,,,0.04,Wunderground v.1.13,2013-06-28 04:35:00,
2013-06-27 23:40:00,72.0,63.3,29.61,NW,321,0.0,7.0,74,0.00,,,0.04,Wunderground v.1.13,2013-06-28 04:40:00,
2013-06-27 23:50:00,71.3,64.1,29.61,NW,321,0.0,7.0,78,0.00,,,0.04,Wunderground v.1.13,2013-06-28 04:50:00,
2013-06-27 23:55:00,71.1,64.6,29.61,NW,321,0.0,7.0,80,0.00,,,0.04,Wunderground v.1.13,2013-06-28 04:55:00,